Temp
74 74 73 74 75 75 74 74 75 74 75 75 75 75 74 74 75 74 74 74 74 74 74 74 74 74 75 75 75 77 75 74 75 75 75 74 74 73 73 73 73 74
73 73 74 74 73 73 73 73 73 74 74 75 75 75 74 74 74 74 74 74 75 74 74 74 74 75 75 76 75 75 75 74 73 76 73 73 73 73 72 71 72 74
72 73 73 72 72 71 71 71 72 72 74 74 74 75 74 74 73 74 74 74 74 73 73 74 74 74 74 74 74 74 74 73 72 74 74 73 73 73 72 73 73 72
72 73 72 71 71 71 71 70 68 69 71 73 74 74 74 74 74 73 73 74 74 73 73 73 73 74 75 74 74 74 73 73 73 73 72 73 73 73 72 73 73 74
71 72 73 73 73 73 71 69 67 65 66 70 72 75 75 74 74 74 74 74 74 74 73 73 73 73 74 74 74 73 73 73 72 73 73 72 72 72 72 72 72 71
72 73 73 74 74 73 70 69 68 67 67 68 71 74 74 74 75 75 75 74 74 74 74 74 74 74 74 74 74 73 73 74 73 73 73 72 73 73 75 73 72 72
71 72 72 74 73 72 71 71 69 68 69 71 72 72 74 74 75 76 76 75 76 75 75 74 73 73 74 74 74 73 74 73 74 75 74 74 73 72 74 73 74 73
71 72 73 75 73 72 71 71 72 70 70 72 72 73 75 76 76 75 76 76 76 76 76 76 75 75 74 74 74 72 72 73 73 74 74 73 72 73 73 73 72 73
72 72 73 74 73 73 72 73 73 72 73 71 72 73 74 75 76 75 75 76 75 75 76 75 75 74 74 73 73 73 73 72 73 73 72 72 72 72 75 74 72 72
72 73 73 73 73 74 73 72 74 74 74 73 74 73 73 73 74 75 74 73 73 74 74 73 73 72 73 74 73 73 73 73 73 72 73 73 73 74 76 74 73 72
72 73 73 73 73 74 73 73 73 74 74 75 74 74 75 74 74 75 74 74 72 74 74 73 73 74 73 73 72 72 72 72 72 73 72 73 73 73 70 74 73 72
73 72 72 73 73 73 72 73 73 74 74 74 76 75 74 74 74 75 76 76 76 76 76 76 76 75 75 75 74 73 73 73 73 73 73 74 74 73 74 74 73 73
73 73 73 72 73 73 74 74 74 74 74 75 75 75 74 74 75 75 75 76 77 76 76 75 75 75 73 73 74 74 73 73 72 72 73 73 74 74 75 75 74 75
73 73 73 73 73 74 74 73 74 74 74 75 75 74 74 75 75 74 75 76 75 76 75 74 73 73 73 73 74 72 72 72 72 72 72 73 72 74 74 74 74 74
73 74 73 73 73 73 72 72 72 73 73 74 74 74 73 75 75 75 74 75 75 73 71 70 70 69 69 70 71 71 71 70 69 71 71 72 73 74 74 74 74 73
74 73 73 73 73 73 73 71 70 71 72 72 73 74 74 74 74 74 74 73 73 72 71 68 67 66 57 51 55 66 65 66 65 67 69 69 69 68 70 74 73 74
72 73 74 73 73 73 72 72 72 71 71 71 71 72 72 72 72 72 72 72 72 72 70 68 65 64 47 46 46 48 59 63 64 64 65 66 67 69 70 72 73 75
73 73 73 73 73 73 73 72 71 72 72 72 71 70 70 71 70 71 71 71 71 72 70 68 66 54 45 46 46 45 50 63 64 63 62 63 65 68 70 71 72 72
72 72 72 72 72 72 72 72 72 72 72 71 70 69 68 67 69 69 68 68 69 70 69 69 69 51 45 46 45 44 44 55 68 67 66 66 67 68 69 69 69 69
71 72 71 71 71 71 70 70 69 70 71 71 70 69 68 68 68 67 67 68 67 68 67 69 69 52 46 46 45 44 42 50 70 68 68 69 68 67 67 67 66 67
70 70 70 72 72 71 70 70 68 68 69 70 69 68 68 68 67 66 66 67 68 68 68 68 70 46 44 44 45 44 40 47 68 68 69 69 68 67 67 66 66 66
69 69 69 70 71 71 70 69 68 68 68 69 69 69 69 69 69 69 67 66 67 67 67 66 68 43 45 44 43 42 40 62 69 68 68 69 68 68 68 69 68 68
69 69 68 68 69 69 70 69 68 68 68 69 68 68 67 67 68 68 69 68 67 67 66 66 66 48 43 42 42 41 51 69 69 70 69 67 67 67 67 65 64 65
69 70 69 68 69 68 68 68 69 69 69 69 68 67 66 67 68 67 67 67 66 65 64 62 62 49 41 43 42 44 56 69 70 70 67 67 66 67 67 64 57 43
67 67 68 68 68 68 68 67 68 69 69 69 68 67 67 68 68 67 66 66 65 64 54 57 59 48 40 42 43 45 56 70 70 70 67 66 66 65 66 65 61 53
66 66 66 66 67 67 68 68 68 69 69 69 69 69 68 68 67 67 66 63 62 62 61 60 54 50 46 41 44 43 46 68 71 69 66 66 67 66 65 64 62 60
MSLP
1017.83 1017.99 1018.15 1018.27 1018.35 1018.35 1018.35 1018.43 1018.51 1018.63 1018.67 1018.63 1018.75 1018.91 1019.23 1019.43 1019.47 1019.55 1019.59 1019.59 1019.71 1019.79 1019.91 1019.99 1020.03 1020.11 1020.11 1020.19 1020.23 1020.11 1020.43 1020.59 1020.59 1020.63 1020.79 1020.83 1020.95 1021.03 1021.15 1021.11 1021.07 1021.03
1017.75 1018.03 1018.11 1018.35 1018.63 1018.63 1018.59 1018.55 1018.59 1018.67 1018.83 1018.79 1018.83 1018.99 1019.23 1019.43 1019.59 1019.59 1019.71 1019.79 1019.83 1020.03 1020.07 1020.19 1020.27 1020.35 1020.39 1020.39 1020.59 1020.59 1020.71 1020.87 1021.03 1020.95 1021.19 1021.27 1021.31 1021.35 1021.47 1021.51 1021.43 1021.27
1017.95 1018.15 1018.35 1018.59 1018.75 1018.87 1018.83 1018.75 1018.79 1018.79 1018.87 1018.99 1019.03 1019.07 1019.35 1019.51 1019.67 1019.75 1019.83 1019.87 1019.99 1020.19 1020.31 1020.39 1020.51 1020.59 1020.67 1020.79 1020.83 1020.87 1021.03 1021.23 1021.35 1021.27 1021.27 1021.51 1021.51 1021.59 1021.71 1021.59 1021.59 1021.55
1017.95 1018.15 1018.39 1018.59 1018.63 1018.75 1018.87 1018.83 1018.87 1018.99 1019.23 1019.19 1019.19 1019.27 1019.43 1019.59 1019.67 1019.87 1019.99 1020.03 1020.15 1020.31 1020.43 1020.51 1020.63 1020.71 1020.75 1020.95 1020.99 1021.11 1021.27 1021.35 1021.47 1021.59 1021.67 1021.67 1021.71 1021.75 1021.83 1021.75 1021.75 1021.63
1017.91 1018.11 1018.23 1018.35 1018.35 1018.43 1018.79 1019.11 1018.91 1019.03 1019.63 1019.47 1019.35 1019.39 1019.51 1019.67 1019.75 1019.87 1020.03 1020.15 1020.23 1020.39 1020.55 1020.67 1020.79 1020.95 1020.99 1020.99 1021.07 1021.31 1021.47 1021.59 1021.71 1021.63 1021.75 1021.87 1021.87 1021.95 1021.99 1021.95 1022.07 1022.11
1017.83 1018.03 1018.11 1018.19 1018.11 1018.19 1018.71 1019.07 1018.83 1018.91 1019.43 1019.67 1019.75 1019.59 1019.63 1019.67 1019.71 1019.87 1020.03 1020.23 1020.31 1020.51 1020.67 1020.79 1020.91 1021.03 1021.03 1021.11 1021.15 1021.31 1021.43 1021.55 1021.71 1021.75 1021.79 1021.95 1021.95 1021.95 1021.95 1022.07 1022.19 1022.23
1017.75 1017.95 1018.07 1018.03 1018.15 1018.39 1018.71 1018.83 1018.83 1018.99 1019.31 1019.31 1019.59 1019.79 1019.67 1019.71 1019.75 1019.87 1019.99 1020.15 1020.31 1020.51 1020.67 1020.91 1021.07 1021.19 1021.19 1021.23 1021.31 1021.47 1021.51 1021.63 1021.71 1021.67 1021.75 1021.87 1021.99 1022.15 1022.07 1022.11 1022.07 1022.19
1017.71 1017.83 1017.99 1017.95 1018.15 1018.47 1018.67 1018.83 1018.79 1018.99 1019.15 1019.23 1019.51 1019.67 1019.63 1019.67 1019.71 1019.87 1019.99 1020.11 1020.27 1020.47 1020.67 1020.83 1020.99 1021.19 1021.27 1021.23 1021.43 1021.67 1021.83 1021.83 1021.83 1021.75 1021.75 1021.95 1022.03 1022.07 1022.19 1022.23 1022.31 1022.27
1017.67 1017.79 1017.91 1017.99 1018.15 1018.35 1018.63 1018.63 1018.75 1018.87 1018.99 1019.31 1019.55 1019.63 1019.71 1019.67 1019.71 1019.95 1020.07 1020.19 1020.39 1020.51 1020.71 1020.91 1021.03 1021.23 1021.35 1021.39 1021.55 1021.63 1021.75 1021.91 1021.87 1021.87 1021.95 1022.07 1022.11 1022.11 1022.03 1022.19 1022.43 1022.47
1017.51 1017.67 1017.79 1017.95 1018.11 1018.19 1018.51 1018.63 1018.63 1018.71 1018.79 1019.11 1019.23 1019.39 1019.63 1019.79 1019.79 1019.91 1020.15 1020.35 1020.59 1020.75 1020.91 1021.11 1021.19 1021.39 1021.47 1021.47 1021.59 1021.75 1021.79 1021.83 1021.91 1021.99 1021.99 1021.99 1021.95 1021.91 1021.83 1022.11 1022.27 1022.43
1017.35 1017.55 1017.71 1017.87 1018.03 1018.11 1018.39 1018.59 1018.67 1018.63 1018.75 1018.91 1019.03 1019.23 1019.39 1019.63 1019.87 1019.87 1020.07 1020.27 1020.55 1020.67 1020.83 1020.99 1021.07 1021.19 1021.39 1021.59 1021.75 1021.79 1021.83 1021.91 1021.91 1021.83 1021.95 1021.95 1021.91 1021.91 1022.03 1022.03 1022.15 1022.31
1017.31 1017.51 1017.71 1017.87 1017.99 1018.07 1018.27 1018.43 1018.51 1018.59 1018.71 1018.79 1018.79 1019.03 1019.23 1019.39 1019.59 1019.71 1019.79 1019.95 1020.15 1020.27 1020.43 1020.63 1020.79 1021.03 1021.11 1021.27 1021.43 1021.55 1021.59 1021.67 1021.67 1021.71 1021.71 1021.75 1021.79 1021.83 1021.79 1021.91 1022.07 1022.07
1017.19 1017.39 1017.55 1017.87 1017.95 1017.95 1018.07 1018.19 1018.39 1018.47 1018.59 1018.67 1018.67 1018.83 1019.07 1019.27 1019.35 1019.51 1019.63 1019.67 1019.79 1019.95 1020.19 1020.39 1020.59 1020.83 1021.11 1021.27 1021.27 1021.31 1021.39 1021.47 1021.51 1021.55 1021.59 1021.59 1021.59 1021.55 1021.59 1021.63 1021.71 1021.75
1017.23 1017.31 1017.51 1017.67 1017.83 1017.91 1018.03 1018.19 1018.35 1018.47 1018.51 1018.55 1018.67 1018.87 1019.03 1019.07 1019.15 1019.27 1019.43 1019.51 1019.63 1019.83 1019.95 1020.27 1020.63 1020.83 1020.95 1021.07 1021.11 1021.23 1021.31 1021.39 1021.35 1021.39 1021.43 1021.47 1021.51 1021.51 1021.43 1021.43 1021.47 1021.51
1017.15 1017.31 1017.43 1017.59 1017.75 1017.91 1018.11 1018.31 1018.35 1018.43 1018.51 1018.55 1018.63 1018.67 1018.83 1018.91 1018.99 1019.11 1019.35 1019.47 1019.67 1019.79 1020.11 1020.39 1020.55 1020.83 1021.07 1021.15 1021.19 1021.23 1021.31 1021.43 1021.51 1021.51 1021.55 1021.47 1021.35 1021.23 1021.19 1021.27 1021.31 1021.35
1017.03 1017.19 1017.43 1017.51 1017.63 1017.79 1017.95 1018.23 1018.47 1018.47 1018.55 1018.55 1018.55 1018.55 1018.63 1018.83 1018.99 1019.11 1019.27 1019.43 1019.63 1019.83 1020.03 1020.27 1020.47 1020.63 1020.95 1021.23 1021.43 1021.51 1021.63 1021.75 1021.83 1021.83 1021.79 1021.71 1021.75 1021.87 1021.63 1021.03 1021.03 1021.07
1017.23 1017.15 1017.15 1017.39 1017.51 1017.67 1017.83 1018.03 1018.11 1018.15 1018.35 1018.43 1018.47 1018.43 1018.51 1018.71 1018.79 1018.99 1019.15 1019.19 1019.27 1019.55 1019.83 1020.07 1020.31 1020.39 1020.75 1020.75 1020.99 1021.83 1022.15 1022.19 1022.19 1022.15 1022.07 1021.95 1021.87 1021.75 1021.51 1021.11 1020.91 1020.79
1017.15 1017.23 1017.23 1017.19 1017.27 1017.39 1017.55 1017.75 1017.91 1017.83 1017.91 1018.03 1018.19 1018.43 1018.55 1018.67 1018.87 1018.87 1018.99 1019.07 1019.11 1019.19 1019.39 1019.71 1020.03 1020.27 1020.39 1020.47 1020.67 1020.91 1021.59 1021.79 1021.83 1021.91 1021.99 1022.03 1021.87 1021.63 1021.35 1021.15 1021.03 1020.99
1017.35 1017.31 1017.31 1017.23 1017.27 1017.35 1017.39 1017.47 1017.47 1017.47 1017.55 1017.79 1017.99 1018.07 1018.39 1018.71 1018.75 1018.87 1018.95 1019.07 1019.23 1019.27 1019.31 1019.39 1019.51 1019.91 1020.35 1020.47 1020.67 1021.07 1021.27 1021.27 1021.19 1021.39 1021.67 1021.71 1021.63 1021.55 1021.47 1021.39 1021.31 1021.27
1017.51 1017.39 1017.35 1017.35 1017.31 1017.35 1017.51 1017.59 1017.67 1017.55 1017.39 1017.39 1017.63 1017.87 1018.07 1018.19 1018.39 1018.67 1018.75 1018.83 1018.99 1019.07 1019.11 1019.11 1019.11 1019.43 1019.79 1020.19 1020.67 1020.91 1021.07 1021.19 1020.91 1021.15 1021.31 1021.31 1021.51 1021.59 1021.59 1021.55 1021.67 1021.59
1017.67 1017.55 1017.47 1017.23 1017.15 1017.23 1017.39 1017.47 1017.55 1017.55 1017.51 1017.47 1017.55 1017.67 1017.79 1017.91 1018.03 1018.31 1018.43 1018.47 1018.51 1018.59 1018.63 1018.67 1018.51 1019.07 1019.59 1020.19 1020.43 1020.67 1020.99 1021.11 1020.83 1020.87 1020.95 1021.11 1021.35 1021.51 1021.51 1021.59 1021.63 1021.67
1017.79 1017.75 1017.67 1017.51 1017.19 1017.11 1017.23 1017.27 1017.31 1017.39 1017.43 1017.43 1017.51 1017.47 1017.43 1017.47 1017.55 1017.71 1017.91 1018.19 1018.15 1018.15 1018.23 1018.31 1018.27 1018.99 1019.55 1019.99 1020.35 1020.63 1020.91 1020.79 1020.51 1020.67 1020.75 1020.95 1021.19 1021.31 1021.31 1021.35 1021.39 1021.43
1017.83 1017.75 1017.71 1017.59 1017.43 1017.23 1017.07 1017.15 1017.15 1017.19 1017.23 1017.23 1017.39 1017.43 1017.47 1017.47 1017.43 1017.39 1017.43 1017.55 1017.71 1017.75 1017.99 1018.07 1018.27 1019.15 1019.63 1020.11 1020.59 1020.59 1020.43 1020.11 1020.19 1020.31 1020.59 1020.91 1021.15 1021.27 1021.39 1021.67 1021.87 1021.83
1017.99 1017.83 1017.67 1017.55 1017.43 1017.31 1017.15 1016.99 1016.95 1016.95 1016.99 1017.07 1017.23 1017.31 1017.39 1017.31 1017.23 1017.31 1017.39 1017.43 1017.51 1017.75 1018.15 1018.63 1018.87 1019.79 1020.19 1020.47 1020.63 1020.27 1019.95 1019.79 1019.87 1019.99 1020.55 1020.83 1021.19 1021.31 1021.35 1021.79 1022.51 1022.63
1018.31 1018.11 1017.87 1017.67 1017.43 1017.19 1017.11 1017.07 1016.91 1016.79 1016.71 1016.79 1017.07 1017.23 1017.23 1017.19 1017.31 1017.39 1017.43 1017.51 1017.67 1017.91 1018.47 1019.03 1019.35 1020.27 1020.91 1020.71 1020.23 1020.03 1020.15 1019.63 1019.55 1019.91 1020.51 1020.75 1020.95 1021.27 1021.39 1021.67 1022.31 1022.87
1018.51 1018.35 1018.19 1017.99 1017.67 1017.39 1017.11 1016.95 1016.87 1016.71 1016.63 1016.63 1016.71 1016.79 1016.83 1016.83 1016.99 1017.15 1017.39 1017.59 1017.79 1017.99 1018.67 1018.83 1018.95 1019.51 1020.39 1021.35 1020.43 1020.39 1020.11 1019.47 1019.35 1019.79 1020.27 1020.55 1020.67 1020.87 1021.19 1021.59 1022.07 1022.67
Wind_Speed
4 3 5 4 4 5 6 6 5 5 5 5 6 6 6 6 6 6 6 6 6 6 6 5 5 5 4 5 3 4 5 5 5 4 5 4 4 4 3 4 4 4
5 4 4 4 4 4 5 6 6 6 5 4 5 6 6 6 5 5 6 6 6 6 6 6 5 5 4 4 4 4 5 5 5 3 4 4 4 4 4 5 4 4
5 6 5 6 6 6 6 6 6 5 4 5 5 5 5 5 5 5 5 6 6 6 6 5 5 4 4 4 4 4 5 5 4 3 3 4 3 4 4 3 4 4
7 7 6 6 6 7 5 6 6 5 2 4 5 5 4 4 5 6 6 6 6 6 5 5 5 4 5 5 4 5 5 4 4 4 4 4 4 4 3 4 4 4
9 8 7 7 7 7 5 4 6 7 1 2 4 5 5 5 5 6 5 6 6 6 6 6 5 5 5 5 5 5 5 5 4 4 4 4 4 4 4 4 4 4
9 8 7 7 6 7 5 4 5 8 6 4 2 2 5 5 5 6 6 6 6 6 6 6 6 5 5 5 5 5 5 5 5 5 5 5 5 4 4 4 4 4
10 9 9 7 6 5 5 3 5 7 6 6 6 4 5 6 6 6 7 6 7 6 7 6 6 5 5 4 5 5 4 5 5 4 5 5 4 4 4 4 4 4
11 9 8 7 7 5 5 4 5 5 5 5 5 5 4 5 6 5 5 6 6 6 6 6 6 6 5 4 5 5 5 3 3 4 4 5 4 4 4 2 2 3
11 10 9 9 8 6 5 5 5 5 6 5 5 4 4 3 5 6 6 5 5 5 6 5 6 6 4 4 4 4 5 4 3 3 3 4 4 4 5 4 3 2
11 10 10 9 9 7 6 5 5 5 5 5 6 5 6 5 5 7 7 6 6 5 5 5 5 5 5 4 4 3 3 4 3 3 2 2 2 3 4 4 4 3
10 10 10 10 9 8 6 5 4 4 4 5 5 6 6 6 6 6 7 8 7 7 7 6 6 6 6 5 4 4 4 3 3 3 2 3 3 2 2 3 4 4
9 9 9 9 9 8 7 5 4 4 4 4 5 5 6 6 7 7 7 8 8 8 8 7 7 6 6 5 5 5 4 3 2 2 3 3 4 4 4 4 4 5
9 9 8 8 8 8 6 5 5 6 7 6 6 6 6 7 8 8 8 8 8 8 8 8 8 7 6 5 4 3 2 2 1 2 2 3 3 5 5 5 6 6
7 8 8 8 7 7 7 6 6 6 6 6 6 6 6 7 8 9 9 9 9 9 9 8 8 7 6 5 3 2 2 2 2 2 2 3 4 5 5 5 6 7
5 6 7 8 8 8 7 7 7 6 6 7 7 7 6 6 7 8 9 9 9 9 10 8 8 6 4 3 2 2 3 4 5 5 5 5 5 6 6 6 6 6
5 6 6 7 8 8 7 7 7 8 7 7 7 7 7 7 8 8 9 10 11 10 9 8 6 5 8 10 3 2 3 3 4 5 6 6 6 8 8 6 6 5
4 5 6 6 7 7 8 7 8 8 8 8 9 9 9 9 10 11 11 11 11 10 10 7 6 6 12 12 13 7 2 2 3 4 5 6 6 8 7 6 6 5
2 3 5 5 6 6 7 7 9 10 9 9 9 10 9 9 10 11 11 11 10 10 9 7 7 8 13 13 13 15 12 5 2 2 4 5 6 6 6 6 5 4
2 3 4 5 5 6 6 7 9 10 10 10 10 10 10 11 11 11 11 10 9 10 9 8 8 13 13 12 11 12 11 6 4 4 5 6 5 5 4 4 4 3
3 4 5 5 5 5 6 7 9 10 9 9 9 9 10 11 12 12 11 11 11 12 11 9 10 13 17 14 12 12 10 7 6 6 6 4 3 2 1 0 1 1
4 3 4 5 5 6 6 7 8 9 10 9 8 9 10 11 12 12 11 12 11 11 11 11 8 13 13 14 14 13 12 7 7 6 6 5 4 3 2 2 2 2
6 5 4 5 6 6 7 8 8 9 9 8 8 8 9 9 10 11 12 11 12 11 10 11 6 15 14 15 13 13 13 8 8 7 6 6 5 4 3 3 2 2
7 6 5 5 5 7 7 8 9 9 8 8 8 8 9 10 10 11 10 11 12 11 8 10 6 13 15 14 13 15 12 9 9 8 7 6 5 5 4 4 4 4
8 7 7 6 5 5 7 8 8 8 8 7 8 9 10 10 10 10 9 7 6 6 5 4 2 8 12 13 14 15 12 10 9 8 8 6 6 4 4 5 7 10
8 9 8 8 7 7 5 7 8 9 8 8 8 9 10 9 9 10 9 7 5 4 8 5 5 5 5 12 15 16 10 9 8 8 7 7 7 6 6 5 6 8
8 8 8 9 9 8 7 6 5 7 9 10 9 9 9 9 9 10 10 8 6 6 4 7 9 10 8 9 12 12 14 7 9 8 8 8 7 7 6 6 7 6
Wind_Direction
153 157 155 154 154 139 131 122 116 117 119 122 117 110 105 101 99 101 100 92 87 87 83 81 82 83 85 84 64 85 102 91 92 97 96 97 97 100 100 94 80 90
163 153 142 137 139 144 130 122 118 116 110 109 106 104 98 101 98 101 101 105 100 92 92 93 93 91 84 79 73 89 95 88 90 88 100 104 108 98 89 90 98 103
145 150 143 155 161 156 145 129 121 110 117 109 110 103 98 93 99 95 93 90 94 97 98 99 97 92 90 93 99 97 98 99 94 93 95 88 83 102 106 109 96 99
153 150 156 167 163 154 159 148 127 103 96 135 120 112 111 106 103 101 99 99 99 99 97 98 99 97 96 103 111 101 100 102 93 101 109 105 103 104 103 107 111 106
151 152 168 178 168 149 164 185 129 108 78 81 111 131 127 125 122 116 114 106 107 106 106 107 106 104 112 110 105 106 108 107 111 113 105 105 101 99 104 111 104 96
150 159 174 181 164 154 167 197 136 125 150 125 146 146 139 140 133 127 128 127 121 118 121 122 121 120 122 121 122 117 125 123 120 128 120 118 123 128 125 121 120 114
158 169 180 176 160 147 162 166 132 139 165 158 162 184 164 154 145 145 142 143 139 138 132 131 126 125 123 128 124 126 119 120 139 136 131 122 120 124 124 142 142 126
168 180 185 186 168 157 164 166 141 142 149 155 170 172 181 160 153 148 151 154 149 144 141 135 138 130 136 131 128 124 118 130 139 144 124 120 139 139 129 120 137 153
182 192 190 190 180 180 182 172 153 146 150 155 180 175 178 177 157 157 158 154 148 148 143 142 143 140 139 137 127 141 138 137 145 131 137 140 157 155 162 144 171 160
198 199 195 191 191 194 188 180 170 157 151 171 181 182 178 177 168 167 160 159 155 153 150 156 153 152 157 159 148 141 155 147 157 162 170 176 172 177 162 165 178 182
207 201 198 201 206 204 197 187 179 170 167 185 182 188 186 178 177 176 170 171 166 169 166 167 165 160 156 158 157 172 170 170 185 181 194 207 216 214 208 213 192 206
203 202 204 209 209 197 191 185 194 204 193 199 197 193 187 190 190 186 186 177 177 174 169 166 160 160 160 152 149 161 165 164 175 188 204 213 207 228 222 214 227 225
212 212 211 209 210 204 195 192 196 204 209 207 198 199 190 195 195 190 187 184 178 172 167 162 154 147 135 136 149 141 140 145 172 196 219 223 233 227 228 231 229 229
223 226 223 219 215 209 199 198 198 198 209 206 204 202 205 208 198 193 184 185 171 173 162 150 148 149 144 142 133 114 88 37 19 339 314 269 251 252 247 243 241 244
225 226 225 220 217 215 210 207 200 198 201 207 203 201 200 212 206 195 181 178 172 165 155 156 157 142 138 131 107 101 49 26 11 353 327 304 289 265 246 246 253 254
234 228 227 227 226 227 223 208 208 203 204 210 209 209 194 195 191 187 184 178 176 167 166 168 162 161 138 124 89 60 21 12 352 333 323 313 310 300 283 268 262 256
257 256 248 242 239 234 238 234 238 222 205 207 211 209 196 191 192 185 186 187 185 174 172 167 161 162 157 148 139 133 205 273 301 304 304 296 281 272 280 287 276 262
235 256 262 264 261 245 235 224 232 237 229 216 200 190 194 190 194 196 193 192 192 192 184 176 181 178 182 175 172 168 175 194 217 244 274 280 283 286 279 276 280 282
274 256 260 260 250 256 260 258 249 243 240 234 217 198 178 191 205 202 199 202 207 216 220 211 221 176 195 202 187 172 166 177 219 232 236 245 258 261 286 299 303 299
280 261 256 256 267 261 247 244 246 247 250 243 232 216 203 197 199 198 201 206 211 222 223 221 224 179 195 196 180 175 165 184 217 215 224 225 203 209 198 324 21 326
356 321 286 278 258 252 249 247 243 246 245 242 233 222 217 208 205 205 213 225 222 220 227 228 222 160 178 173 176 174 169 175 212 196 192 172 165 151 150 129 117 118
11 358 330 293 280 260 255 249 243 241 242 239 237 228 226 226 223 224 224 228 230 225 221 228 183 161 167 173 172 171 159 188 189 172 169 162 151 143 133 115 95 85
356 349 350 327 303 285 266 257 251 240 237 236 234 231 231 231 230 227 226 224 228 230 232 230 172 166 165 171 170 166 166 185 167 170 155 150 134 128 120 81 50 17
339 340 340 341 315 295 283 270 260 250 239 233 235 228 230 235 234 234 232 226 226 226 219 281 149 155 167 166 174 166 185 176 170 162 148 144 138 132 113 89 57 29
334 333 331 329 327 315 301 286 266 254 245 232 228 233 240 244 243 242 233 222 218 201 102 162 142 118 178 186 170 170 203 183 171 152 157 153 150 139 127 112 93 61
324 327 328 328 321 321 307 292 280 266 252 244 233 232 240 243 240 240 233 217 199 185 174 165 141 152 165 234 172 186 218 213 163 162 164 158 160 146 140 129 116 102